Home   Weather   Tuba City   Past weeks
Flag for USA

Past Weather in Tuba City, Arizona, USA — Yesterday and Last 2 Weeks

Now
61 °F

Sunny.


Feels Like: 61 °F
Forecast: 71 / 32 °F
Wind: 15 mph from Southwest

Location: Grand Canyon National Park Airport

Current Time: Oct 19, 2019 at 2:39:37 pm

Latest Report: Oct 19, 2019 at 1:54 pm


Visibility: 10 mi

Pressure: 29.95 "Hg (25.06 "Hg at 1510m altitude)

Humidity: 8%

Dew Point: 0 °F

Location of Tuba CityLocation

Past Weather in Tuba City — Graph

°F

Tuba City Temperature Yesterday

Maximum temperature yesterday: 61 °F (at 4:54 pm)
Minimum temperature yesterday: 27 °F (at 11:54 pm)
Average temperature yesterday: 45 °F

High & Low Weather Summary for the Past Weeks

 TemperatureHumidityPressure
High75 °F (Oct 7, 2:54 pm)72% (Oct 15, 6:54 am)30.32 "Hg (Oct 15, 6:54 am)
Low18 °F (Oct 11, 3:54 am)5% (Oct 5, 4:54 pm)29.61 "Hg (Oct 17, 9:54 pm)
Average48 °F26%30.01 "Hg
* Reported Oct 4 12:54 pm — Oct 19 12:54 pm, Tuba City. Weather by CustomWeather, © 2019

Note: Actual official high and low records may vary slightly from our data, if they occured in-between our weather recording intervals... More about our weather records

Advertising

Tuba City Weather History for the Previous 24 Hours

Scroll right to see more
 ConditionsComfort  
Time TempWeatherWind HumidityBarometerVisibility
12:54 pm
Sat, Oct 19
60 °FSunny.7 mph12%29.98 "Hg10 mi
11:54 am59 °FSunny.No wind12%29.99 "Hg10 mi
10:54 am55 °FSunny.7 mph15%30.03 "Hg10 mi
9:54 am47 °FSunny.No wind25%30.04 "Hg10 mi
8:54 am30 °FSunny.No wind40%30.10 "Hg10 mi
7:54 am19 °FSunny.3 mph49%30.10 "Hg10 mi
6:54 am19 °FClear.No wind49%30.04 "Hg10 mi
5:54 am20 °FClear.No wind50%30.01 "Hg10 mi
4:54 am20 °FClear.No wind48%29.98 "Hg10 mi
3:54 am22 °FClear.No wind46%29.99 "Hg10 mi
2:54 am23 °FClear.No wind44%29.98 "Hg10 mi
1:54 am24 °FClear.No wind42%29.98 "Hg10 mi
12:54 am25 °FClear.3 mph42%29.99 "Hg10 mi
11:54 pm
Fri, Oct 18
27 °FClear.No wind39%29.98 "Hg10 mi
10:54 pm29 °FClear.No wind38%29.98 "Hg10 mi
9:54 pm33 °FClear.No wind33%29.97 "Hg10 mi
8:54 pm34 °FClear.No wind31%29.98 "Hg10 mi
7:54 pm39 °FClear.No wind28%29.99 "Hg10 mi
6:54 pm53 °FClear.3 mph18%29.93 "Hg10 mi
5:54 pm58 °FSunny.7 mph16%29.85 "Hg10 mi
4:54 pm61 °FSunny.9 mph10%29.85 "Hg10 mi
3:54 pm59 °FSunny.7 mph15%29.85 "Hg10 mi
2:54 pm59 °FSunny.N/A18%29.81 "Hg10 mi
Weather by CustomWeather, © 2019

See weather overview